Weather History for Tocumen, Panama

Change the Weather History Date:

Wednesday, March 6, 2013

  Actual Average Record
Temperature  
Mean Temperature 85 °F -  
Max Temperature 93 °F 89 °F 96 °F (1998)
Min Temperature 77 °F 73 °F 71 °F (1997)
Cooling Degree Days 20    
Growing Degree Days 35 (Base 50)    
Moisture  
Dew Point 70 °F    
Average Humidity 65    
Maximum Humidity 83    
Minimum Humidity 46    
Precipitation  
Precipitation 0.00 in - - ()
Sea Level Pressure  
Sea Level Pressure 29.86 in    
Wind  
Wind Speed 2 mph ()    
Max Wind Speed 13 mph    
Max Gust Speed -    
Visibility 5.9 miles    
Events      
Averages and records for this station are not official NWS values.
T = Trace of Precipitation, MM = Missing Value Source: Averaged Metar Reports

Daily Weather History Graph

Daily Weather History Graph

Search for Another Location

Airport:

Trip Planner

Search our weather history database for the weather conditions in past years. The results will help you decide how hot, cold, wet, or windy it might be!

Date:

Astronomy

Mar. 06, 2013 Rise Set
Actual Time 6:28 AM EST 6:28 PM EST
Civil Twilight 6:07 AM EST 6:49 PM EST
Nautical Twilight 5:43 AM EST 7:13 PM EST
Astronomical Twilight 5:19 AM EST 7:38 PM EST
Moon 1:51 AM EST (3/6) 1:52 PM EST (3/6)
Length of Visible Light 12h 41m
Length of Day
11h 59m
Waning Crescent, 30% of the Moon is Illuminated
Mar 6
Waning Crescent
Mar 11
New
Mar 19
First Quarter
Mar 27
Full
Apr 2
Last Quarter

Hourly Weather History & Observations

Time (EST) Temp. Heat Index Dew Point Humidity Pressure Visibility Wind Dir Wind Speed Gust Speed Precip Events Conditions
12:00 AM 80.6 °F 84.6 °F 71.6 °F 74% 29.89 in 6.2 mi Calm Calm - N/A   Scattered Clouds
1:00 AM 78.8 °F - 71.6 °F 78% 29.86 in 6.2 mi Calm Calm - N/A   Scattered Clouds
2:00 AM 78.8 °F - 71.6 °F 78% 29.83 in 6.2 mi Calm Calm - N/A   Partly Cloudy
3:00 AM 77.0 °F - 71.6 °F 83% 29.83 in 6.2 mi Calm Calm - N/A   Partly Cloudy
4:00 AM 77.0 °F - 71.6 °F 83% 29.83 in 6.2 mi Calm Calm - N/A   Scattered Clouds
5:00 AM 77.0 °F - 71.6 °F 83% 29.83 in 6.2 mi Calm Calm - N/A   Scattered Clouds
6:00 AM 77.0 °F - 71.6 °F 83% 29.86 in 6.2 mi Calm Calm - N/A   Scattered Clouds
7:00 AM 78.8 °F - 71.6 °F 78% 29.86 in 6.2 mi Calm Calm - N/A   Mostly Cloudy
8:00 AM 78.8 °F - 71.6 °F 78% 29.89 in 5.6 mi Calm Calm - N/A   Mostly Cloudy
9:00 AM 86.0 °F 91.8 °F 71.6 °F 62% 29.89 in 5.6 mi Calm Calm - N/A   Mostly Cloudy
10:00 AM 87.8 °F 92.6 °F 69.8 °F 55% 29.89 in 5.6 mi NE 8.1 mph - N/A   Scattered Clouds
11:00 AM 89.6 °F 94.7 °F 69.8 °F 52% 29.89 in 5.6 mi NNE 5.8 mph - N/A   Mostly Cloudy
12:00 PM 93.2 °F 98.8 °F 69.8 °F 46% 29.86 in 5.6 mi NNE 4.6 mph - N/A   Mostly Cloudy
1:00 PM 91.4 °F 96.8 °F 69.8 °F 49% 29.86 in 5.6 mi ENE 4.6 mph - N/A   Mostly Cloudy
2:00 PM 89.6 °F 94.7 °F 69.8 °F 52% 29.83 in 5.6 mi NE 5.8 mph - N/A   Mostly Cloudy
3:00 PM 89.6 °F 94.7 °F 69.8 °F 52% 29.83 in 5.6 mi NE 9.2 mph - N/A   Mostly Cloudy
4:00 PM 89.6 °F 94.7 °F 69.8 °F 52% 29.80 in 5.6 mi NE 5.8 mph - N/A   Mostly Cloudy
5:00 PM 89.6 °F 94.7 °F 69.8 °F 52% 29.80 in 5.6 mi NE 12.7 mph - N/A   Mostly Cloudy
6:00 PM 86.0 °F 90.4 °F 69.8 °F 58% 29.80 in 5.6 mi NE 4.6 mph - N/A   Scattered Clouds
7:00 PM 84.2 °F 88.4 °F 69.8 °F 62% 29.83 in 6.2 mi NE 2.3 mph - N/A   Scattered Clouds
8:00 PM 82.4 °F 85.4 °F 68.0 °F 62% 29.86 in 6.2 mi ENE 3.5 mph - N/A   Partly Cloudy
9:00 PM 82.4 °F 85.4 °F 68.0 °F 62% 29.89 in 6.2 mi ENE 2.3 mph - N/A   Partly Cloudy
10:00 PM 82.4 °F 85.4 °F 68.0 °F 62% 29.89 in 6.2 mi Calm Calm - N/A   Partly Cloudy
11:00 PM 82.4 °F 85.4 °F 68.0 °F 62% 29.92 in 6.2 mi Calm Calm - N/A   Partly Cloudy